Flag for Cyprus Weather past 2 weeks in Larnaca, Cyprus

Now
72 °F

Sunny.


Feels Like: 75 °F
Forecast: 63 / 85 °F
Wind: 12 mph from Southwest

Location: Larnaca Airport

Current Time: May 25, 2015 at 8:51:57 PM

Latest Report: May 25, 2015 at 8:30 PM


Visibility: 10 mi

Pressure: 29.83 "Hg

Humidity: 69%

Dew point: 61 °F

Location of LarnacaLocation

Historic Weather in Larnaca — Graph

°F

Larnaca temperature yesterday

Maximum temperature yesterday: 84 °F (at 2:30 PM)
Minimum temperature yesterday: 64 °F (at 2:00 AM)
Average temperature yesterday: 73 °F

Past Weeks' High & Low Weather Summary

 TemperatureHumidityPressure
High93 °F (May 18, 2:00 PM)100% (May 24, 12:30 AM)30.21 "Hg (May 24, 12:30 AM)
Low57 °F (May 15, 4:30 AM)21% (May 20, 5:00 PM)29.71 "Hg (May 19, 5:30 PM)
Average73 °F61%29.89 "Hg
* Reported May 10 8:00 PM — May 25 8:00 PM, Larnaca, Weather by CustomWeather, © 2015

Note: Actual official high and low records may vary slightly from our data, if they occured in-between our weather recording intervals... More about our weather records

Advertising

Larnaca weather history for previous 24 hours

 ConditionsComfort  
Time TempWeatherWind HumidityBarometerVisibility
8:00 PM
Mon, May 25
73 °FSunny.13 mph61%29.83 "Hg10 mi
7:30 PM75 °FSunny.12 mph54%29.80 "Hg10 mi
7:00 PM75 °FPassing clouds.14 mph57%29.80 "HgN/A
6:30 PM77 °FPassing clouds.16 mph57%29.80 "HgN/A
6:00 PM79 °FPassing clouds.12 mph48%29.80 "HgN/A
5:30 PM81 °FPassing clouds.18 mph51%29.80 "HgN/A
5:00 PM82 °FPassing clouds.20 mph51%29.80 "HgN/A
4:30 PM90 °FPassing clouds.20 mph33%29.83 "HgN/A
4:00 PM91 °FPassing clouds.17 mph21%29.83 "HgN/A
3:30 PM90 °FSunny.20 mph29%29.83 "Hg10 mi
3:00 PM86 °FSunny.21 mph35%29.83 "Hg10 mi
2:30 PM86 °FSunny.21 mph33%29.83 "Hg10 mi
2:00 PM81 °FPassing clouds.20 mph54%29.86 "HgN/A
1:30 PM79 °FPassing clouds.17 mph70%29.86 "HgN/A
1:00 PM77 °FPassing clouds.18 mph74%29.89 "HgN/A
12:30 PM79 °FPassing clouds.13 mph54%29.89 "HgN/A
12:00 PM75 °FPassing clouds.12 mph78%29.89 "HgN/A
11:30 AM77 °FPassing clouds.9 mph69%29.89 "HgN/A
11:00 AM75 °FPassing clouds.9 mph74%29.89 "HgN/A
10:30 AM75 °FPassing clouds.8 mph78%29.89 "HgN/A
10:00 AM75 °FSunny.9 mph65%29.89 "Hg10 mi
9:30 AM75 °FSunny.9 mph57%29.89 "Hg10 mi
9:00 AM75 °FSunny.6 mph47%29.89 "Hg10 mi
8:30 AM73 °FPassing clouds.3 mph50%29.89 "HgN/A
8:00 AM73 °FSunny.No wind53%29.89 "Hg10 mi
7:30 AM73 °FSunny.3 mph50%29.86 "Hg10 mi
7:00 AM70 °FSunny.3 mph53%29.86 "Hg10 mi
6:30 AM66 °FClear.2 mph60%29.86 "Hg10 mi
6:00 AM64 °FClear.2 mph60%29.86 "Hg10 mi
5:30 AM63 °FClear.3 mph64%29.86 "Hg10 mi
5:00 AM63 °FPassing clouds.3 mph64%29.86 "HgN/A
4:30 AM63 °FClear.5 mph73%29.86 "Hg10 mi
4:00 AM64 °FClear.5 mph64%29.86 "Hg10 mi
3:30 AM64 °FClear.3 mph68%29.83 "Hg10 mi
3:00 AM64 °FClear.5 mph64%29.86 "Hg10 mi
2:30 AM64 °FClear.3 mph68%29.86 "Hg10 mi
2:00 AM64 °FClear.5 mph73%29.86 "Hg10 mi
1:30 AM64 °FClear.3 mph78%29.86 "Hg10 mi
1:00 AM66 °FClear.3 mph83%29.86 "Hg10 mi
12:30 AM68 °FClear.3 mph88%29.86 "Hg10 mi
12:00 AM72 °FClear.6 mph83%29.86 "Hg10 mi
11:30 PM
Sun, May 24
70 °FClear.7 mph83%29.86 "Hg10 mi
11:00 PM72 °FClear.7 mph83%29.86 "Hg10 mi
10:30 PM72 °FClear.9 mph88%29.89 "Hg10 mi
10:00 PM72 °FClear.9 mph83%29.86 "Hg10 mi
9:30 PM72 °FClear.9 mph83%29.86 "Hg10 mi
9:00 PM72 °FClear.10 mph83%29.86 "Hg10 mi
8:30 PM72 °FSunny.3 mph83%29.86 "Hg10 mi
8:00 PM73 °FSunny.10 mph78%29.86 "Hg10 mi
Weather by CustomWeather, © 2015

See weather overviewHow to use our weather pages